Flag for United Kingdom Weather past 2 weeks in Slough, England, United Kingdom

Now
61 °F

Fog.


Feels Like: 61 °F
Forecast: 61 / 75 °F
Wind: 7 mph from Northeast

Location: London City Airport

Current Time: Sep 18, 2014 at 3:29:07 AM

Latest Report: Sep 18, 2014 at 2:50 AM


Visibility: 1 mi

Pressure: 29.83 "Hg

Humidity: 88%

Dew point: 57 °F

Location of SloughLocation

Historic Weather in Slough — Graph

°F

Slough temperature yesterday

Maximum temperature yesterday: 70 °F (at 3:20 PM)
Minimum temperature yesterday: 61 °F (at 7:20 AM)
Average temperature yesterday: 64 °F

Past Weeks' High & Low Weather Summary

 TemperatureHumidityPressure
High73 °F (Sep 16, 2:20 PM)100% (Sep 3, 7:50 AM)30.33 "Hg (Sep 3, 7:50 AM)
Low52 °F (Sep 8, 6:50 AM)38% (Sep 8, 3:20 PM)29.83 "Hg (Sep 17, 4:50 PM)
Average63 °F76%30.09 "Hg
* Reported Sep 3 2:20 AM — Sep 18 2:20 AM, Slough, Weather by CustomWeather, © 2014

Note: Actual official high and low records may vary slightly from our data, if they occured in-between our weather recording intervals... More about our weather records

Advertising

Slough weather history for previous 24 hours

 ConditionsComfort  
Time TempWeatherWind HumidityBarometerVisibility
2:20 AM
Sep 18
61 °FFog.5 mph88%29.83 "Hg2 mi
1:50 AM61 °FFog.2 mph94%29.83 "Hg2 mi
1:20 AM61 °FFog.6 mph94%29.83 "Hg1 mi
12:50 AM61 °FFog.6 mph94%29.83 "Hg1 mi
12:20 AM61 °FFog.6 mph94%29.83 "Hg2 mi
11:50 PM
Sep 17
63 °FFog.6 mph88%29.86 "Hg2 mi
11:20 PM63 °FFog.3 mph94%29.86 "Hg1 mi
10:50 PM63 °FFog.5 mph94%29.86 "Hg1 mi
10:20 PM63 °FFog.5 mph94%29.86 "Hg1 mi
9:50 PM63 °FFog.5 mph94%29.86 "Hg1 mi
9:20 PM63 °FFog.6 mph94%29.86 "Hg1 mi
8:50 PM64 °FClear.6 mph88%29.86 "Hg4 mi
8:20 PM64 °FClear.9 mph88%29.86 "Hg4 mi
7:50 PM64 °FClear.8 mph88%29.86 "Hg4 mi
7:20 PM66 °FClear.8 mph83%29.86 "Hg4 mi
6:50 PM66 °FPassing clouds.8 mph83%29.86 "Hg4 mi
6:20 PM68 °FScattered clouds.8 mph73%29.83 "Hg4 mi
5:50 PM68 °FScattered clouds.9 mph73%29.83 "Hg4 mi
5:20 PM70 °FScattered clouds.9 mph69%29.83 "Hg4 mi
4:50 PM70 °FScattered clouds.9 mph69%29.83 "Hg6 mi
4:20 PM70 °FScattered clouds.9 mph69%29.86 "Hg6 mi
3:50 PM70 °FPartly sunny.10 mph69%29.86 "Hg4 mi
3:20 PM70 °FBroken clouds.10 mph69%29.86 "Hg6 mi
2:50 PM68 °FBroken clouds.9 mph73%29.86 "Hg6 mi
2:20 PM68 °FBroken clouds.8 mph73%29.86 "Hg4 mi
1:50 PM68 °FBroken clouds.9 mph73%29.86 "Hg4 mi
1:20 PM66 °FPartly sunny.7 mph78%29.89 "Hg4 mi
12:50 PM64 °FFog.8 mph83%29.89 "Hg3 mi
12:20 PM64 °FFog.9 mph83%29.89 "Hg3 mi
11:50 AM63 °FFog.8 mph88%29.89 "Hg3 mi
11:20 AM63 °FFog.7 mph83%29.89 "Hg3 mi
10:50 AM63 °FFog.10 mph83%29.92 "Hg2 mi
10:20 AM63 °FFog.9 mph83%29.92 "Hg3 mi
9:50 AM61 °FFog.10 mph88%29.92 "Hg3 mi
9:20 AM61 °FFog.8 mph88%29.92 "Hg3 mi
8:50 AM61 °FFog.9 mph88%29.92 "Hg3 mi
8:20 AM61 °FFog.9 mph88%29.92 "Hg3 mi
7:50 AM61 °FFog.10 mph88%29.92 "Hg3 mi
7:20 AM61 °FFog.10 mph88%29.92 "Hg3 mi
6:50 AM63 °FFog.8 mph83%29.92 "Hg3 mi
6:20 AM63 °FFog.10 mph83%29.92 "Hg3 mi
5:50 AM63 °FFog.8 mph83%29.92 "Hg2 mi
5:20 AM63 °FFog.10 mph83%29.92 "Hg2 mi
4:50 AM63 °FFog.9 mph83%29.92 "Hg2 mi
4:20 AM63 °FFog.10 mph83%29.92 "Hg2 mi
3:50 AM63 °FFog.9 mph83%29.92 "Hg2 mi
3:20 AM63 °FFog.10 mph83%29.92 "Hg3 mi
Weather by CustomWeather, © 2014

See weather overviewHow to use our weather pages